EN

Hourly Weather Barnstable

Today, 5 August, Thursday

Time Temperature Precipitation Wind Pressure Humidity
00:00 +20°C° 1.4 mm 4 mps 763 mmHg 98%
01:00 +20°C° 1.4 mm 2 mps 763 mmHg 98%
02:00 +20°C° 1 mm 2 mps 763 mmHg 98%
03:00 +21°C° 1 mm 2 mps 763 mmHg 99%
04:00 +22°C° 1 mm 1 mps 763 mmHg 99%
05:00 +21°C° 1.5 mm 2 mps 763 mmHg 99%
06:00 +21°C° 1.5 mm 3 mps 763 mmHg 99%
07:00 +21°C° 1.5 mm 4 mps 762 mmHg 99%
08:00 +22°C° 4.2 mm 5 mps 762 mmHg 98%
09:00 +22°C° 4.2 mm 5 mps 762 mmHg 97%
10:00 +23°C° 4.2 mm 5 mps 762 mmHg 96%
11:00 +23°C° 3.6 mm 6 mps 762 mmHg 96%
12:00 +23°C° 3.6 mm 8 mps 762 mmHg 96%
13:00 +23°C° 3.6 mm 9 mps 762 mmHg 96%
14:00 +23°C° 0.1 mm 8 mps 761 mmHg 94%
15:00 +24°C° 0.1 mm 7 mps 761 mmHg 92%
16:00 +24°C° 0.1 mm 7 mps 761 mmHg 90%
17:00 +23°C° 0.1 mm 6 mps 761 mmHg 93%
18:00 +22°C° 0.1 mm 4 mps 762 mmHg 95%
19:00 +21°C° 0.1 mm 3 mps 762 mmHg 97%
20:00 +20°C° 0.1 mm 3 mps 762 mmHg 97%
21:00 +20°C° 0.1 mm 3 mps 762 mmHg 97%
22:00 +19°C° 0.1 mm 3 mps 763 mmHg 96%
23:00 +19°C° 0 mm 4 mps 763 mmHg 96%

Tomorrow, 6 August, Friday

Time Temperature Precipitation Wind Pressure Humidity
00:00 +19°C° 0 mm 4 mps 763 mmHg 96%
01:00 +19°C° 0 mm 4 mps 764 mmHg 96%
02:00 +19°C° 0 mm 4 mps 764 mmHg 96%
03:00 +19°C° 0 mm 4 mps 764 mmHg 96%
04:00 +19°C° 0 mm 4 mps 764 mmHg 96%
05:00 +20°C° 0 mm 4 mps 764 mmHg 92%
06:00 +21°C° 0 mm 4 mps 765 mmHg 88%
07:00 +22°C° 0 mm 4 mps 765 mmHg 84%
08:00 +25°C° 0 mm 4 mps 765 mmHg 75%
09:00 +26°C° 0 mm 4 mps 765 mmHg 67%
10:00 +28°C° 0 mm 4 mps 765 mmHg 59%
11:00 +29°C° 0 mm 4 mps 765 mmHg 57%
12:00 +29°C° 0 mm 4 mps 765 mmHg 55%
13:00 +30°C° 0 mm 5 mps 764 mmHg 52%
14:00 +29°C° 0 mm 5 mps 764 mmHg 56%
15:00 +28°C° 0 mm 5 mps 764 mmHg 60%
16:00 +27°C° 0 mm 5 mps 764 mmHg 63%
17:00 +26°C° 0 mm 5 mps 764 mmHg 69%
18:00 +25°C° 0 mm 5 mps 764 mmHg 75%
19:00 +23°C° 0 mm 5 mps 764 mmHg 81%
20:00 +22°C° 0 mm 5 mps 764 mmHg 82%
21:00 +22°C° 0 mm 5 mps 764 mmHg 83%
22:00 +22°C° 0 mm 5 mps 765 mmHg 83%
23:00 +22°C° 0 mm 4 mps 764 mmHg 84%

Day after tomorrow, 7 August, Saturday

Time Temperature Precipitation Wind Pressure Humidity
00:00 +22°C° 0 mm 4 mps 764 mmHg 85%
01:00 +21°C° 0 mm 4 mps 764 mmHg 85%
02:00 +21°C° 0 mm 4 mps 764 mmHg 86%
03:00 +21°C° 0 mm 4 mps 764 mmHg 87%
04:00 +21°C° 0 mm 4 mps 763 mmHg 89%
05:00 +22°C° 0 mm 4 mps 763 mmHg 85%
06:00 +23°C° 0 mm 4 mps 764 mmHg 81%
07:00 +25°C° 0 mm 4 mps 764 mmHg 77%
08:00 +26°C° 0 mm 4 mps 764 mmHg 70%
09:00 +28°C° 0 mm 5 mps 763 mmHg 63%
10:00 +29°C° 0 mm 5 mps 763 mmHg 56%
11:00 +29°C° 0 mm 5 mps 763 mmHg 55%
12:00 +29°C° 0 mm 6 mps 763 mmHg 54%
13:00 +30°C° 0 mm 6 mps 763 mmHg 53%
14:00 +28°C° 0 mm 6 mps 762 mmHg 59%
15:00 +27°C° 0 mm 6 mps 762 mmHg 64%
16:00 +26°C° 0 mm 6 mps 762 mmHg 69%
17:00 +26°C° 0 mm 6 mps 762 mmHg 71%
18:00 +25°C° 0 mm 5 mps 762 mmHg 74%
19:00 +23°C° 0 mm 5 mps 762 mmHg 76%
20:00 +23°C° 0 mm 5 mps 762 mmHg 77%
21:00 +23°C° 0 mm 4 mps 762 mmHg 79%
22:00 +23°C° 0 mm 4 mps 761 mmHg 80%
23:00 +23°C° 0 mm 4 mps 761 mmHg 80%

8 August, Sunday

Time Temperature Precipitation Wind Pressure Humidity
00:00 +23°C° 0 mm 4 mps 761 mmHg 81%
01:00 +23°C° 0 mm 4 mps 761 mmHg 81%
02:00 +24°C° 0 mm 3 mps 761 mmHg 82%
03:00 +24°C° 0 mm 3 mps 761 mmHg 82%
04:00 +22°C° 0 mm 3 mps 760 mmHg 83%
05:00 +22°C° 0.1 mm 4 mps 761 mmHg 83%
06:00 +22°C° 0.1 mm 4 mps 761 mmHg 83%
07:00 +22°C° 0.1 mm 4 mps 762 mmHg 83%
08:00 +23°C° 0.1 mm 4 mps 762 mmHg 77%
09:00 +25°C° 0.1 mm 3 mps 762 mmHg 72%
10:00 +26°C° 0.1 mm 3 mps 762 mmHg 67%
11:00 +26°C° 0 mm 3 mps 762 mmHg 66%
12:00 +25°C° 0 mm 2 mps 762 mmHg 65%
13:00 +25°C° 0 mm 2 mps 762 mmHg 64%
14:00 +26°C° 0 mm 2 mps 762 mmHg 60%
15:00 +26°C° 0 mm 2 mps 762 mmHg 56%
16:00 +27°C° 0 mm 2 mps 762 mmHg 53%
17:00 +25°C° 0 mm 2 mps 762 mmHg 60%
18:00 +22°C° 0 mm 3 mps 762 mmHg 68%
19:00 +21°C° 0 mm 3 mps 763 mmHg 75%
20:00 +20°C° 0 mm 3 mps 763 mmHg 78%
21:00 +20°C° 0 mm 3 mps 763 mmHg 81%
22:00 +19°C° 0 mm 4 mps 763 mmHg 84%
23:00 +19°C° 0 mm 4 mps 764 mmHg 88%

9 August, Monday

Time Temperature Precipitation Wind Pressure Humidity
00:00 +19°C° 0 mm 3 mps 764 mmHg 92%
01:00 +19°C° 0 mm 3 mps 764 mmHg 96%
02:00 +19°C° 0 mm 3 mps 764 mmHg 96%
03:00 +19°C° 0 mm 2 mps 764 mmHg 95%
04:00 +19°C° 0 mm 2 mps 764 mmHg 95%
05:00 +20°C° 0 mm 2 mps 764 mmHg 89%
06:00 +21°C° 0 mm 3 mps 765 mmHg 82%
07:00 +22°C° 0 mm 3 mps 765 mmHg 76%
08:00 +25°C° 0 mm 3 mps 765 mmHg 69%
09:00 +26°C° 0 mm 3 mps 766 mmHg 62%
10:00 +27°C° 0 mm 3 mps 766 mmHg 55%
11:00 +28°C° 0 mm 3 mps 766 mmHg 55%
12:00 +28°C° 0 mm 3 mps 766 mmHg 55%
13:00 +28°C° 0 mm 3 mps 766 mmHg 55%
14:00 +28°C° 0 mm 4 mps 765 mmHg 57%
15:00 +27°C° 0 mm 4 mps 765 mmHg 59%
16:00 +27°C° 0 mm 4 mps 765 mmHg 61%
17:00 +26°C° 0 mm 4 mps 765 mmHg 69%
18:00 +23°C° 0 mm 4 mps 765 mmHg 77%
19:00 +21°C° 0 mm 4 mps 765 mmHg 85%
20:00 +21°C° 0 mm 4 mps 765 mmHg 87%
21:00 +21°C° 0 mm 4 mps 765 mmHg 89%
22:00 +21°C° 0 mm 4 mps 765 mmHg 91%
23:00 +21°C° 0 mm 4 mps 765 mmHg 91%

10 August, Tuesday

Time Temperature Precipitation Wind Pressure Humidity
00:00 +21°C° 0 mm 3 mps 765 mmHg 92%
01:00 +20°C° 0 mm 3 mps 765 mmHg 92%
02:00 +20°C° 0 mm 3 mps 765 mmHg 93%
03:00 +20°C° 0 mm 3 mps 765 mmHg 94%
04:00 +20°C° 0 mm 3 mps 765 mmHg 95%
05:00 +21°C° 0 mm 3 mps 764 mmHg 90%
06:00 +22°C° 0 mm 4 mps 764 mmHg 85%
07:00 +23°C° 0 mm 4 mps 764 mmHg 80%
08:00 +26°C° 0 mm 5 mps 764 mmHg 74%
09:00 +27°C° 0 mm 5 mps 764 mmHg 68%
10:00 +28°C° 0 mm 6 mps 764 mmHg 62%
11:00 +28°C° 0 mm 6 mps 763 mmHg 63%
12:00 +29°C° 0 mm 7 mps 763 mmHg 63%
13:00 +29°C° 0 mm 8 mps 762 mmHg 63%
14:00 +29°C° 0 mm 8 mps 762 mmHg 65%
15:00 +28°C° 0 mm 8 mps 761 mmHg 68%
16:00 +28°C° 0 mm 8 mps 761 mmHg 70%
17:00 +27°C° 0.1 mm 8 mps 761 mmHg 76%
18:00 +26°C° 0.1 mm 8 mps 760 mmHg 83%
19:00 +24°C° 0.1 mm 8 mps 760 mmHg 89%
20:00 +24°C° 1.2 mm 8 mps 760 mmHg 91%
21:00 +24°C° 1.2 mm 9 mps 760 mmHg 93%
22:00 +23°C° 1.2 mm 9 mps 760 mmHg 95%
23:00 +23°C° 0.5 mm 9 mps 760 mmHg 94%
Show more

We Need Your Consent

Meteoprog and our Service Providers may store and access personal data such as cookies, device identifiers or other similar technologies on your device and process such data to personalise content and ads, as well as provide social media features and to analyse the traffic.

  • Store and/or access information on your device

    Cookies, device identifiers or other information can be stored or accessed on your device for the purposes indicated above.

  • Personalised ads and content, ad and content measurement, audience insights, and products development

    Ads and content can be personalised based on a profile. More data can be added to better personalise ads and content. Ad and content performance can be measured. Insights about the audience who saw the ads and content can be derived. Such data can be used to develop or improve user’s experience, systems and software.

By clicking ‘I Agree’ you will allow the use of indicated cookies, device identifiers, web beacons or other similar technologies. Your settings can be changed in the browser on your device.

For certain purposes, legitimate interests may be relied on, rather than consent. You can read more about this in our Privacy and Cookie Policy.